Tracking 20093 objects as of 15-Dec-2019
HD Live streaming from Space Station
objects crossing your sky now

COSMOS 2251 DEB

Track COSMOS 2251 DEB now!
10-day predictions


NORAD ID: 34616
Int'l Code: 1993-036WM
Perigee: 605.1 km
Apogee: 633.5 km
Inclination: 74.0 °
Period: 96.9 minutes
Semi major axis: 6990 km
RCS: 0.0247 m2 (small)
Launch date: June 16, 1993
Source: Commonwealth of Independent States (former USSR) (CIS)
Launch site: PLESETSK MISSILE AND SPACE COMPLEX (PKMTR)

Note: This is SATELLITE DEBRIS
aabbcc
Your satellite tracking list
Your tracking list is empty




NASA's NSSDC Master Catalog

Two Line Element Set (TLE):
1 34616U 93036WM  19348.46376611  .00004992  00000-0  58052-3 0  9997
2 34616  74.0244 104.0172 0020374 296.2126 182.5825 14.85453266571864
Source of the keplerian elements: AFSPC